Regional Weather Roundup
Issued by NWS

Home | Current Version | Previous Version | Text Only | Print | Product List | Glossary On
Versions: 1 2 3 4 5 6 7 8 9 10 11 12 13 14 15 16 17 18 19 20 21 22 23 24 25 26 27 28 29 30 31 32 33 34 35 36 37 38 39 40 41 42 43 44 45 46 47
000
ASUS45 KBOU 210810
RWRCO

WEATHER ROUNDUP FOR COLORADO
NATIONAL WEATHER SERVICE DENVER/BOULDER CO
200 AM MDT SAT APR 21 2018

NOTE: "FAIR" INDICATES FEW OR NO CLOUDS BELOW 12000 FEET WITH NO
SIGNIFICANT WEATHER AND/OR OBSTRUCTIONS TO VISIBILITY.

COZ001>005-013-030-031-210900-
...NORTHWEST COLORADO...

CITY           SKY/WX    TMP DP  RH WIND       PRES   REMARKS
CRAIG          CLOUDY    38  32  79 VRB6      30.06R
HAYDEN         CLOUDY    33  32  96 CALM      30.07R
MEEKER         CLOUDY    35  32  88 SW8       30.07R WCI  29
RANGELY        DRIZZLE   40  39  96 CALM      30.11S
RABBIT EARS PA LGT SNOW  23  23 100 NE7       30.06S VSB 1   WCI  15
STEAMBOAT SPGS CLOUDY    32  32 100 CALM      30.05R
WALDEN         CLOUDY    30  25  80 N12       30.09R WCI  21
$$

COZ006>008-011-210900-
...WEST CENTRAL VALLEYS...

CITY           SKY/WX    TMP DP  RH WIND       PRES   REMARKS
GRAND JUNCTION CLOUDY    42  39  89 CALM      30.08R
MONTROSE       LGT RAIN  37  35  92 SE7       30.09F
EAGLE          LGT SNOW  32  31  96 E5        30.08R FOG     WCI  27
RIFLE          LGT RAIN  34  34 100 E3        30.08R
DELTA          LGT RAIN  40  37  89 N5        30.09S
NUCLA          RAIN      36  34  93 E5        30.14S
$$

COZ017>023-064>068-210900-
...SOUTHWEST COLORADO...

CITY           SKY/WX    TMP DP  RH WIND       PRES   REMARKS
DURANGO        CLOUDY    40  27  59 W13       30.05F
CORTEZ         CLOUDY    37  27  67 CALM      30.10S
PAGOSA SPRINGS FAIR      29  22  75 CALM      30.08R
TELLURIDE      LGT SNOW  29  28  96 CALM      30.12S VSB 1
WOLF CREEK PAS CLOUDY    16  14  93 SW12      30.13S WCI   3
$$

COZ009-010-012-014-032>034-037-058>063-210900-
...CENTRAL COLORADO...

CITY           SKY/WX    TMP DP  RH WIND       PRES   REMARKS
ASPEN          LGT SNOW  31  29  92 CALM      30.05R VSB 1
BUENA VISTA    CLOUDY    31  29  93 SE3       30.05R
COPPER MTN     NOT AVBL
BERTHOUD PASS  CLOUDY    16   5  62 S13G18    30.07S WCI   2
COTTONWOOD PAS CLOUDY    32  28  86 CALM      30.04S FOG
GUNNISON       LGT SNOW  31  29  92 CALM      30.07S FOG
GRANBY         LGT SNOW  30  29  97 CALM      30.06R
KREMMLING      LGT SNOW  36  34  93 SW5       30.06R VSB 1
LEADVILLE      LGT SNOW  24  22  91 NE5       30.03S FOG     WCI  18
MONARCH PASS   CLOUDY    19  16  86 W17       30.15S WCI   4
SALIDA         CLOUDY    33  32  95 CALM      30.12R
SUNLIGHT       LGT SNOW  23  21  93 MISG      30.11R VSB 1
WILKERSON PASS LGT SNOW N/A N/A N/A N9        30.07F
$$

COZ069>075-210900-
...SAN LUIS VALLEY/SANGRE DE CRISTO MOUNTAINS...

CITY           SKY/WX    TMP DP  RH WIND       PRES   REMARKS
ALAMOSA        CLOUDY    28  24  85 W3        30.04S
DEL NORTE      CLOUDY    29  22  75 CALM      30.05S
LA VETA PASS   CLOUDY    23  19  86 SW20G31   30.11F WCI   8
SAGUACHE       NOT AVBL
$$

COZ035-036-038>040-210900-
...NORTHERN COLORADO FRONT RANGE...

CITY           SKY/WX    TMP DP  RH WIND       PRES   REMARKS
DENVER INTL AP LGT SNOW  32  32 100 NE12      30.08S FOG     WCI  23
AURORA         FLURRIES  34  33  99 N7        30.08R WCI  27
FRONT RANGE AP LGT SNOW  35  34  96 NE9       30.09S VSB 1   WCI  27
ERIE MUNI ARPT MIX PCPN  33  32  99 N8        30.16S WCI  25
BOULDER MUN AP LGT SNOW  32  32 100 N9        30.11S WCI  24
CENTENNIAL     LGT SNOW  34  34 100 N7        30.06S FOG     WCI  28
BROOMFIELD     FOG       32  32 100 N12       30.09S VSB 1   WCI  23
FORT COLLINS   LGT SNOW  32  31  96 N8        30.14S FOG     WCI  25
LONGMONT       LGT SNOW  35  33  93 N9        30.14S WCI  28
$$

COZ041-046-047-076>085-087-088-210900-
...PIKES PEAK/PALMER DIVIDE AND SOUTHERN FOOTHILLS...

CITY           SKY/WX    TMP DP  RH WIND       PRES   REMARKS
COLO. SPRINGS  FOG       32  32 100 NW3       30.03F VSB 1/4
A. F. ACADEMY  CLOUDY    31  31 100 CALM      30.03F
SCHRIEVER AFB  NOT AVBL
CHEYENNE MTN   SNOWSHWR  30  30 100 N5        29.97F WCI  25
ELLICOTT       CLOUDY   N/A N/A N/A E7        30.02F
FALCON         LGT SNOW  31  31 100 CALM      30.05S VSB 3/4
FORT CARSON    CLOUDY   N/A N/A N/A CALM      30.03S
LIMON          CLOUDY    32  32 100 E8        30.08S WCI  25
MONUMENT HILL  CLOUDY    30  30 100 S5        30.04S WCI  25
CANON CITY     CLOUDY    34  34 100 NW7       30.04F WCI  28
WALSENBURG     NOT AVBL
TRINIDAD       FAIR      33  31  92 N6        30.01S WCI  28
$$

COZ042>045-048>051-090-091-210900-
...NORTHEAST COLORADO...

CITY           SKY/WX    TMP DP  RH WIND       PRES   REMARKS
GREELEY ARPT   FLURRIES  34  33  96 E7        30.14F WCI  28
AKRON          LGT SNOW  32  32 100 E13       30.13R VSB 1   WCI  22
BURLINGTON     LGT RAIN  38  37  97 SE9       30.11S
WRAY           LGT RAIN  37  37 100 E15       30.17S
YUMA           LGT RAIN  34  34 100 E17       30.14F WCI  23
STERLING       NOT AVBL
HOLYOKE        RAIN      41  37  87 SE14      30.18F
FORT MORGAN    FLURRIES  34  33  96 E10       30.14F WCI  26
$$

COZ086-089-092>099-210900-
...SOUTHEAST COLORADO...

CITY           SKY/WX    TMP DP  RH WIND       PRES   REMARKS
PUEBLO         CLOUDY    41  35  79 E7        30.02F
LA JUNTA       CLOUDY    42  40  92 E9        30.03F
LAMAR          CLOUDY    42  39  89 SE12      30.04F
SPRINGFIELD      N/A     39  39 100 SE10      30.03S
$$




USA.gov is the U.S. government's official web portal to all federal, state and local government web resources and services.